[[{"header":{"parameterUnit":"m.s-1","parameterCategory":1,"la1":30.2991,"la2":30.254,"lo1":-89.0895,"lo2":-89.0444,"dy":0.0017,"dx":0.0017,"nx":28,"ny":28,"refTime":"2025-05-22T03:00:00:Z","depth":0,"parameterNumber":2,"parameterNumberName":"U-component_of_WINDS"},"data":[0,0,0,0,0,0,0,0,0,0,0,0,0,0,0,0,0,0,0,0,0,0,0,0,0,0,0,0,0,0,0,0,0,0,0,0,0,0,0,0,0,0,0,0,0,0,0,0,0,0,0,0,0,0,0,0,0,0,0.2802,0.2803,0,0.2938,0.294,0.2941,0.3006,0.3006,0.3006,0.3006,0.3145,0.3149,0.3153,0,0,0,0,0,0,0,0,0,0,0,0,0,0.2596,0.2599,0.2802,0.2803,0.2805,0.2938,0.294,0.2942,0.3006,0.3006,0.3006,0.3006,0.3144,0.3149,0.3153,0,0,0,0,0,0,0,0,0,0,0,0,0,0.2704,0.26,0.2801,0.2853,0.2859,0.2938,0.294,0.2942,0.3006,0.3006,0.3006,0.3006,0.3143,0.3148,0.3154,0.3191,0,0,0.3171,0.3174,0,0,0,0,0,0,0,0,0.2698,0.2711,0.2844,0.285,0.2857,0.2955,0.2918,0.3025,0.3006,0.295,0.3006,0.3006,0.3082,0.3093,0.3119,0.3197,0.3203,0.3172,0.3175,0.3178,0.3179,0,0,0,0,0,0,0,0.269,0.2706,0.2856,0.2846,0.2853,0.2869,0.2885,0.2939,0.3015,0.2955,0.296,0.2975,0.3086,0.3113,0.3122,0.3205,0.3172,0.3177,0.318,0.3182,0.3321,0.3321,0,0,0,0,0,0,0.2674,0.2699,0.2851,0.286,0.2775,0.2873,0.289,0.2923,0.3015,0.3029,0.2975,0.2978,0.3103,0.3116,0.3127,0.3177,0.3177,0.3183,0.3186,0.3321,0.3321,0.3321,0,0,0,0,0,0,0.267,0.2687,0.2846,0.2781,0.2802,0.2877,0.2914,0.2926,0.2954,0.303,0.3044,0.2989,0.3104,0.312,0.3175,0.3183,0.3185,0.3191,0.332,0.3321,0.3321,0.3276,0,0,0,0,0,0,0.2663,0.2685,0.27,0.2781,0.2805,0.2891,0.2914,0.2929,0.2963,0.2968,0.3047,0.306,0.3105,0.3166,0.318,0.3191,0.3195,0.332,0.3321,0.3321,0.3277,0.3274,0.3272,0,0,0,0,0,0.2656,0.2682,0.2701,0.2719,0.2826,0.2891,0.2905,0.2956,0.2964,0.2979,0.3028,0.3057,0.3179,0.3171,0.3188,0.32,0.332,0.332,0.3321,0.3278,0.3275,0.3273,0,0,0,0,0,0,0.26,0.2693,0.2715,0.2768,0.2821,0.2902,0.2923,0.2952,0.3004,0.3006,0.3067,0.3085,0.3134,0.3172,0.3161,0.324,0.3252,0.3256,0.3213,0.3211,0.3209,0.3199,0.32,0,0,0,0,0,0.2594,0.264,0.2718,0.2758,0.2783,0.2848,0.2878,0.2913,0.2971,0.2993,0.3046,0.3101,0.3151,0.3183,0.3234,0.3282,0.33,0.3299,0.3297,0.3294,0.3297,0.3326,0.3326,0.3323,0.3323,0.3323,0,0,0.2582,0.2639,0.2664,0.2748,0.2793,0.2838,0.2867,0.2913,0.2948,0.3001,0.3056,0.3096,0.3161,0.3212,0.3238,0.3246,0.3302,0.3295,0.3293,0.3297,0.3326,0.3326,0.3327,0.3324,0.3324,0.3324,0,0,0.2584,0.2631,0.2669,0.2713,0.2781,0.2824,0.2833,0.2909,0.2938,0.2995,0.3035,0.3076,0.3162,0.3207,0.324,0.3257,0.3286,0.3272,0.3261,0.3288,0.3288,0.3289,0.3295,0.3296,0.3275,0.3275,0.3275,0,0.256,0.2631,0.2685,0.2729,0.2765,0.2814,0.2853,0.2893,0.2974,0.2998,0.3005,0.3114,0.3161,0.3223,0.3227,0.3253,0.3265,0.3264,0.3284,0.3285,0.3286,0.3293,0.3295,0.3273,0.3273,0.3273,0.3273,0,0.2599,0.2646,0.2669,0.2746,0.2784,0.2825,0.2885,0.2916,0.2948,0.299,0.3046,0.3104,0.3167,0.3185,0.3216,0.3251,0.3254,0.3272,0.3286,0.3283,0.3291,0.3294,0.3269,0.327,0.3271,0.3271,0,0,0.257,0.2676,0.2683,0.2718,0.2796,0.2834,0.2877,0.2939,0.2965,0.3019,0.3057,0.3128,0.3144,0.3182,0.3219,0.3242,0.3252,0.3257,0.326,0.3254,0.3295,0.3282,0.3284,0.3271,0.3272,0.3272,0.329,0,0.2583,0.2663,0.2712,0.2772,0.2817,0.2864,0.2902,0.2953,0.2993,0.3037,0.3081,0.3131,0.3149,0.3172,0.3197,0.3245,0.3261,0.3245,0.3307,0.3308,0.329,0.3288,0.3274,0.3288,0.3293,0.3293,0.3294,0,0.2609,0.2661,0.2725,0.2798,0.2819,0.2852,0.2912,0.2953,0.3012,0.304,0.3082,0.3118,0.3165,0.3174,0.324,0.3227,0.3255,0.3283,0.3284,0.3293,0.3301,0.3296,0.3293,0.3295,0.3299,0.3298,0.3298,0,0.2581,0.2668,0.2718,0.2747,0.2833,0.2855,0.2891,0.2951,0.2984,0.3037,0.3059,0.3116,0.3148,0.3191,0.3242,0.3243,0.3302,0.3315,0.3327,0.3325,0.3338,0.3336,0.3339,0.3354,0.3354,0.3354,0.3354,0,0.2591,0.2628,0.2707,0.2738,0.2781,0.2837,0.2878,0.2919,0.2971,0.301,0.3054,0.3089,0.3154,0.3197,0.3237,0.3285,0.3299,0.3323,0.3333,0.3319,0.3316,0.3339,0.334,0.3355,0.3355,0.3355,0.3355,0,0.2569,0.2623,0.268,0.2757,0.2777,0.2805,0.2871,0.2902,0.2944,0.2993,0.3007,0.3073,0.3127,0.3181,0.3253,0.328,0.3327,0.3341,0.3307,0.3313,0.3322,0.332,0.334,0.3346,0.3356,0.3356,0.3355,0,0.2571,0.2601,0.2681,0.271,0.2746,0.2793,0.2827,0.2883,0.2917,0.2987,0.3009,0.3066,0.3114,0.3197,0.3252,0.3307,0.3323,0.3326,0.3331,0.3316,0.3323,0.3321,0.3324,0.3324,0.3324,0.3323,0.3323,0,0.257,0.2596,0.2644,0.2702,0.2742,0.279,0.2839,0.2861,0.2926,0.2962,0.3017,0.3054,0.3128,0.3184,0.3245,0.3283,0.3314,0.3321,0.3326,0.3313,0.3292,0.3304,0.3302,0.332,0.332,0.3321,0.3321,0.3321,0.2561,0.259,0.2651,0.2703,0.2746,0.2791,0.2824,0.287,0.2917,0.2981,0.3011,0.3066,0.3124,0.321,0.3247,0.3291,0.3299,0.3307,0.331,0.3311,0.3308,0.3284,0.3302,0.3302,0.3302,0.3303,0.3303,0,0.2563,0.2604,0.2652,0.272,0.2761,0.2786,0.2842,0.2874,0.2922,0.2974,0.302,0.3083,0.3137,0.3195,0.3252,0.3276,0.3292,0.3289,0.3289,0.3297,0.3297,0.3286,0.3276,0.3276,0.3276,0.3276,0.3276,0.3276,0.2569,0.2619,0.2651,0.2723,0.2764,0.2818,0.2848,0.2889,0.2931,0.2999,0.3044,0.3082,0.3136,0.3197,0.3248,0.3263,0.3283,0.3276,0.3296,0.3295,0.3297,0.3299,0.3289,0.328,0.328,0.3292,0.3293,0.3293]},{"header":{"parameterUnit":"m.s-1","parameterCategory":1,"la1":30.2991,"la2":30.254,"lo1":-89.0895,"lo2":-89.0444,"dy":0.0017,"dx":0.0017,"nx":28,"ny":28,"refTime":"2025-05-22T03:00:00:Z","depth":0,"parameterNumber":3,"parameterNumberName":"V-component_of_WINDS"},"data":[0,0,0,0,0,0,0,0,0,0,0,0,0,0,0,0,0,0,0,0,0,0,0,0,0,0,0,0,0,0,0,0,0,0,0,0,0,0,0,0,0,0,0,0,0,0,0,0,0,0,0,0,0,0,0,0,0,0,3.5802,3.5801,0,3.5749,3.5748,3.5747,3.5695,3.5694,3.5694,3.5693,3.5634,3.5633,3.5632,0,0,0,0,0,0,0,0,0,0,0,0,0,3.5855,3.5854,3.5802,3.5801,3.5801,3.5749,3.5748,3.5747,3.5695,3.5694,3.5693,3.5693,3.5634,3.5633,3.5632,0,0,0,0,0,0,0,0,0,0,0,0,0,3.582,3.5854,3.5802,3.5768,3.5765,3.5749,3.5748,3.5747,3.5695,3.5694,3.5693,3.5692,3.5635,3.5633,3.5632,3.5644,0,0,3.5628,3.5627,0,0,0,0,0,0,0,0,3.5822,3.5818,3.5774,3.5771,3.5767,3.5728,3.5745,3.5712,3.5696,3.5722,3.5693,3.5692,3.5666,3.5662,3.5654,3.5641,3.5638,3.5628,3.5627,3.5626,3.5626,0,0,0,0,0,0,0,3.5824,3.582,3.5781,3.5773,3.5769,3.5755,3.5749,3.5739,3.57,3.5719,3.5715,3.571,3.5663,3.5655,3.5652,3.5637,3.5628,3.5626,3.5626,3.5625,3.5632,3.5633,0,0,0,0,0,0,3.5832,3.5822,3.5782,3.5779,3.5793,3.5755,3.5748,3.5741,3.57,3.5693,3.5711,3.5708,3.5658,3.5654,3.565,3.5662,3.5626,3.5625,3.5624,3.5631,3.5633,3.5634,0,0,0,0,0,0,3.5834,3.5829,3.5784,3.58,3.5793,3.5755,3.5748,3.5741,3.5732,3.5694,3.5686,3.571,3.5657,3.5652,3.5646,3.5659,3.5624,3.5623,3.563,3.5632,3.5633,3.5685,0,0,0,0,0,0,3.5836,3.583,3.5835,3.58,3.5792,3.5783,3.5748,3.574,3.5731,3.5726,3.5691,3.5684,3.5656,3.5649,3.5645,3.5656,3.5622,3.5629,3.5631,3.5633,3.5682,3.5688,3.5693,0,0,0,0,0,3.5838,3.585,3.5836,3.5831,3.5798,3.5784,3.5779,3.5748,3.5732,3.5736,3.5711,3.5685,3.5658,3.5648,3.5644,3.5655,3.5628,3.563,3.5633,3.5679,3.5687,3.5693,0,0,0,0,0,0,3.5886,3.5845,3.5828,3.583,3.5811,3.5775,3.5779,3.5757,3.5741,3.5737,3.5698,3.569,3.5689,3.5671,3.5661,3.5665,3.5639,3.5641,3.5677,3.5683,3.5689,3.5693,3.5621,0,0,0,0,0,3.5897,3.589,3.5855,3.586,3.5851,3.5817,3.581,3.5788,3.5766,3.5757,3.5732,3.571,3.5697,3.5689,3.5675,3.5679,3.5671,3.5684,3.569,3.5695,3.5697,3.5699,3.5705,3.5641,3.5641,3.5641,0,0,3.5919,3.5896,3.5894,3.5869,3.5852,3.5845,3.5811,3.5804,3.5799,3.5756,3.575,3.573,3.5704,3.5704,3.5702,3.5689,3.5713,3.5698,3.5702,3.5701,3.5702,3.5708,3.5713,3.5643,3.5643,3.5643,0,0,3.5957,3.5939,3.5942,3.5926,3.5901,3.5878,3.5879,3.5847,3.5833,3.5826,3.5794,3.5786,3.5764,3.5747,3.5735,3.5768,3.5743,3.5764,3.5794,3.5796,3.5801,3.5806,3.5818,3.5823,3.5766,3.5766,3.5766,0,3.5988,3.5978,3.5946,3.5943,3.5933,3.5895,3.5898,3.5883,3.5854,3.5847,3.5833,3.5805,3.5784,3.578,3.5789,3.578,3.578,3.5768,3.5804,3.5807,3.5811,3.5822,3.5827,3.5769,3.5769,3.5768,3.5768,0,3.6017,3.6011,3.6016,3.5991,3.5981,3.5981,3.5949,3.5943,3.5922,3.5901,3.5895,3.5869,3.5849,3.5846,3.5825,3.584,3.5832,3.5811,3.5785,3.582,3.5831,3.5835,3.5773,3.5772,3.5771,3.577,0,0,3.6083,3.6042,3.6045,3.6033,3.6003,3.5997,3.5995,3.5977,3.5973,3.5954,3.5952,3.5935,3.5916,3.5902,3.5879,3.5881,3.591,3.586,3.5858,3.5871,3.5925,3.5942,3.5947,3.5893,3.5894,3.5895,3.5928,0,3.6117,3.6112,3.6084,3.6087,3.6081,3.6046,3.6044,3.6025,3.6005,3.5996,3.5973,3.5963,3.5938,3.593,3.5931,3.5906,3.592,3.5903,3.589,3.589,3.5899,3.5952,3.597,3.6002,3.5931,3.5932,3.5932,0,3.6155,3.6141,3.6144,3.6115,3.6112,3.6111,3.6093,3.6085,3.6063,3.6048,3.6035,3.6009,3.6004,3.598,3.5972,3.5962,3.5954,3.5942,3.5942,3.594,3.5914,3.5952,3.6012,3.6017,3.5938,3.5938,3.5937,0,3.6204,3.6185,3.6185,3.6177,3.6143,3.6143,3.6129,3.6106,3.6097,3.6081,3.6075,3.6058,3.6049,3.6036,3.6007,3.5992,3.6003,3.5976,3.5991,3.5992,3.5995,3.5995,3.6054,3.5989,3.5989,3.5989,3.5989,0,3.6244,3.6248,3.6207,3.6207,3.621,3.6178,3.6181,3.6163,3.6143,3.6139,3.6106,3.6102,3.6063,3.6054,3.6031,3.6029,3.6024,3.6012,3.6006,3.6016,3.6017,3.6011,3.6008,3.599,3.599,3.599,3.599,0,3.63,3.6273,3.6271,3.6239,3.6232,3.6235,3.6208,3.6207,3.6185,3.618,3.6177,3.6143,3.6131,3.6101,3.608,3.6064,3.6069,3.6057,3.6078,3.6074,3.609,3.609,3.6148,3.6154,3.6085,3.6086,3.6086,0,3.6328,3.633,3.63,3.6295,3.6283,3.6276,3.6268,3.6235,3.6228,3.6204,3.6205,3.6191,3.6179,3.6162,3.6135,3.6119,3.6107,3.6129,3.6104,3.6114,3.6108,3.6109,3.6109,3.6134,3.6135,3.6136,3.6136,0,3.6381,3.6368,3.6358,3.6344,3.6336,3.6323,3.6308,3.6306,3.6269,3.6263,3.6252,3.6242,3.6223,3.621,3.619,3.6174,3.6149,3.6144,3.6147,3.6157,3.6169,3.6164,3.6093,3.6143,3.6142,3.6142,3.6141,3.6141,3.6424,3.6425,3.6404,3.6394,3.638,3.6368,3.6365,3.6344,3.6335,3.6318,3.6299,3.629,3.6268,3.624,3.6226,3.6218,3.6205,3.6208,3.6209,3.6211,3.6216,3.617,3.6214,3.6214,3.6213,3.6213,3.6213,0,3.6476,3.6461,3.6453,3.6434,3.6427,3.6405,3.6388,3.6383,3.6376,3.6358,3.6347,3.6335,3.6322,3.6295,3.628,3.6279,3.6267,3.6276,3.6276,3.6273,3.6228,3.6228,3.6286,3.6286,3.6286,3.6286,3.6286,3.6286,3.6502,3.6503,3.6487,3.6481,3.6465,3.6458,3.645,3.6438,3.6424,3.6412,3.6402,3.6385,3.6363,3.6346,3.6334,3.6326,3.6322,3.6335,3.6324,3.6282,3.6276,3.6269,3.6269,3.6334,3.6334,3.6369,3.6369,3.6369]}]]